THOR AGENA D R/B, 815

Orbit data source: Space-Track

THOR AGENA D R/B, 815 is space debris in SSO originally from a launch on Thu, 18 Jun 1964 UTC launched from the Air Force Western Test Range (AFWTR). Debris objects in space refer to the collection of defunct objects orbiting the Earth. Examples of debris include non-operational satellites, rocket bodies, and fragments generated from explosions, collisions, or faulty payload assembly.

Loading next visibility...
Identifier
815, 1964-031C
Orbit
SSO
Country
Flag of USUS
Related business
Manufacturer
LMSC
Mission
Spacecraft
Bus & Motor
AGENA D, Unknown motor
Mass
600 kg wet, 600 kg dry
Launch date (UTC)
1964-06-18 (61 years ago)
Launch vehicle
Unknown
Launch site
Air Force Western Test Range (AFWTR)
Object type
Payload
Rocket body
Debris
Shape & HBR
Unknown
Radar Cross Section
Large (>1 m²)

Expand to show TLE details & history
Last TLE update: 13 hours ago

TLE from 13 hours ago
0 THOR AGENA D R/B
1 00815U 64031C   25310.30794826  .00000310  00000-0  14568-3 0  9999
2 00815  99.8027 228.1582 0011151 203.7091 156.3574 14.28380639189182
Epoch: 2025-11-06T07:23Z
TLE epoch observation values (Epoch: 2025-11-06T07:23:26.729Z)
Latitude
-0.00003°
Longitude
71.5287°
Altitude
807.37 km
Speed
7.446 km/s
True Right ascension
15h 12m 37s
True Declination
0° 00' 00"
Sunlit
Object was in daylight at epoch
Visualization orbit readout
Latitude
Unknown
Longitude
Unknown
Altitude
Unknown
Speed
Unknown
Apparent Right ascension
Unknown
Apparent Declination
Unknown
Sunlit
N/A
Visualization observer readout
Local Sidereal Time
16:52:48
Azimuth
Unknown
Elevation
Unknown
Doppler factor
Unknown
Orbital elements
Apogee altitude
802.35 km
Perigee altitude
786.354 km
Semi-major axis
7,172.489 km
Eccentricity
0.00112
Inclination
99.8027°
RAAN
228.1582°
Arg. of periapsis
203.7091°
True anomaly
156.40858°
Mean anomaly
156.3574°
Eccentric anomaly
156.383°
Mean motion
3.57304 °/min
Orbital period
100.75 mins
BSTAR
0.00014568
Loading maneuver chart data...
Computing Atmospheric mass density...
Loading historical data...
Loading historical data...
Loading historical data...
Loading historical data...
Loading historical data...
Loading historical data...
Loading historical data...
Other satellites on launch #31 in the year 1964 (1964-06-18 UTC)

Documentation

Showing up to 5 results
|